sat.trackr.live / text

‹ back to catalog

STARLINK-37130

NORAD 68604 · 2026-073C

PAYLOAD ACTIVE UNKNOWN

§ Identity

Operator
Country
US
Launch date
2026-04-07
Launch site
AFWTR
Launch vehicle
Mass (kg)
RCS (m²)

Purposes: comms

External: N2YO · Heavens-Above · Gunter

§ Orbital elements

Epoch: 2026-05-25T04:00:03.998880Z

Period
92.76 min
Inclination
97.2854°
Eccentricity
0.0001976
Mean motion
15.52452706 rev/d
Perigee alt
408.2 km
Apogee alt
410.9 km
Semi-major
6,787.7 km
B*
-4.2094e-2
RAAN
344.5938°
Arg perigee
77.1264°
Mean anomaly
74.5796°
Rev number
594

§ Raw data

STARLINK-371301 68604U 26073C   26145.16671295 -.02264154  00000+0 -42094-1 0  99922 68604  97.2854 344.5938 0001976  77.1264  74.5796 15.52452706  5940

JSON: /api/v1/satellites/68604 · /tle

For live sub-satellite position, see the globe view (requires WebGL).

§ Visibility from observer

Set your observer location to see the next 7 days of passes ≥ 10°. The values pass through the URL so the page stays shareable.

No JS? Fill the form by hand. The geolocation button needs JavaScript.